WB2COY Weather Reports


Display with metric or nautical units.
time (UTC)temp
F
wind
direction
speed
MPH
gust
MPH
rain 1hr
in
rain 24hr
in
rain mn
in
humidity
%
barometer
mb
20260906083016 63 45 1.0 4.0 0.00 0.00 0.00 67 1013.3
20260906080017 62 0.0 0.0 0.00 0.00 0.00 69 1013.3
20260906073015 63 0.0 0.0 0.00 0.00 0.00 68 1013.2
20260906070016 64 0.0 0.0 0.00 0.00 0.00 68 1013.2
20260906063015 64 0.0 0.0 0.00 0.00 0.00 68 1013.2
20260906060015 65 0.0 2.0 0.00 0.00 0.00 67 1013.2
20260906053017 65 338 1.0 3.0 0.00 0.00 0.00 66 1013.3
20260906050017 65 0 1.0 3.0 0.00 0.00 0.00 67 1013.2
20260906043015 65 23 1.0 4.0 0.00 0.00 0.00 67 1013.2
20260906040021 66 0 1.0 3.0 0.00 0.00 0.00 67 1012.9
20260906033017 66 0.0 2.0 0.00 0.00 0.00 67 1013.0
20260906030017 66 0.0 0.0 0.00 0.00 0.00 67 1012.8
20260906023015 66 0.0 1.0 0.00 0.00 0.00 66 1012.8
20260906020017 67 0.0 1.0 0.00 0.00 0.00 65 1012.6
20260906013016 67 0.0 2.0 0.00 0.00 0.00 64 1012.5
20260906010016 68 338 1.0 2.0 0.00 0.00 0.00 63 1012.3
20260906003015 70 0 1.0 4.0 0.00 0.00 0.00 60 1011.9
20260906000055 70 0.0 2.0 0.00 0.00 0.00 60 1011.9
20260905233015 71 0.0 2.0 0.00 0.00 0.00 58 1011.6
20260905230035 72 338 1.0 4.0 0.00 0.00 0.00 56 1011.4
20260905223015 73 0 2.0 6.0 0.00 0.00 0.00 54 1011.4
20260905220016 74 0 2.0 5.0 0.00 0.00 0.00 53 1011.1
20260905213015 75 23 2.0 7.0 0.00 0.00 0.00 50 1010.9
20260905210036 76 23 2.0 5.0 0.00 0.00 0.00 51 1010.6
20260905203015 77 45 2.0 8.0 0.00 0.00 0.00 47 1010.3
20260905200016 77 0 2.0 5.0 0.00 0.00 0.00 45 1010.4
20260905193015 77 45 2.0 6.0 0.00 0.00 0.00 46 1010.4
20260905190017 78 23 2.0 5.0 0.00 0.00 0.00 45 1010.5
20260905183018 78 45 2.0 6.0 0.00 0.00 0.00 47 1010.6
20260905180017 78 23 2.0 7.0 0.00 0.00 0.00 48 1010.7
20260905173017 77 23 2.0 5.0 0.00 0.00 0.00 51 1010.9
20260905170017 75 45 2.0 6.0 0.00 0.00 0.00 58 1011.1
20260905163017 74 23 2.0 8.0 0.00 0.00 0.00 57 1011.1
20260905160037 74 23 2.0 7.0 0.00 0.00 0.00 59 1011.1
20260905153036 73 0 2.0 6.0 0.00 0.00 0.00 61 1011.1
20260905150018 72 0 2.0 5.0 0.00 0.00 0.00 65 1011.3
20260905143037 71 23 2.0 5.0 0.00 0.00 0.00 65 1011.3
20260905140016 70 23 1.0 4.0 0.00 0.00 0.00 70 1011.1
20260905133016 68 0.0 2.0 0.00 0.00 0.00 71 1011.4
20260905130016 66 0.0 2.0 0.00 0.00 0.00 76 1011.6
20260905123017 64 0.0 0.0 0.00 0.00 0.00 81 1011.7
20260905120037 61 0.0 1.0 0.00 0.00 0.00 82 1011.7
20260905113037 60 0.0 0.0 0.00 0.00 0.00 83 1011.2
20260905110039 58 0.0 0.0 0.00 0.00 0.00 83 1010.8
20260905103016 58 0.0 0.0 0.00 0.00 0.00 82 1010.3
20260905100017 58 0.0 0.0 0.00 0.00 0.00 82 1010.2
20260905093016 59 0.0 0.0 0.00 0.00 0.00 82 1010.2
20260905090015 59 0.0 0.0 0.00 0.00 0.00 82 1010.1